Location: Arbon
(43.0005°N, 0.7472°E)
Time: 22:53:03
(UTC+00:00)

Explorer 7 - Pass Details

Date: 28 November 2020
Orbit: 484 x 678 km, 50.3° (Epoch: 26 January)

Event Time Altitude Azimuth Distance (km) Brightness Sun altitude
Rises 07:51:30 0° 299° (WNW) 2,705 9.7 6.2°
Reaches altitude 10° 07:53:48 10° 296° (WNW) 1,779 8.8 6.5°
Maximum altitude 07:57:47 66° 215° (SW) 561 7.0 7.1°
Drops below altitude 10° 08:01:34 10° 133° (SE) 1,688 12.6 7.6°
Sets 08:03:42 0° 130° (SE) 2,552 12.9 7.9°
